Year,Month,Day,Hour,Minute,Value (Times are PST for temperature in C)
2010,07,25,00,00,12.00
2010,07,25,00,01,12.00
2010,07,25,00,02,12.00
2010,07,25,00,03,12.00
2010,07,25,00,04,12.00
2010,07,25,00,05,12.00
2010,07,25,00,06,12.00
2010,07,25,00,07,12.00
2010,07,25,00,08,11.90
2010,07,25,00,09,11.90
2010,07,25,00,10,11.90
2010,07,25,00,11,11.90
2010,07,25,00,12,11.90
2010,07,25,00,13,11.90
2010,07,25,00,14,11.90
2010,07,25,00,15,11.80
2010,07,25,00,16,11.80
2010,07,25,00,17,11.80
2010,07,25,00,18,11.80
2010,07,25,00,19,11.80
2010,07,25,00,20,11.80
2010,07,25,00,21,11.80
2010,07,25,00,22,11.80
2010,07,25,00,23,11.80
2010,07,25,00,24,11.80
2010,07,25,00,25,11.80
2010,07,25,00,26,11.80
2010,07,25,00,27,11.80
2010,07,25,00,28,11.80
2010,07,25,00,29,11.80
2010,07,25,00,30,11.80
2010,07,25,00,31,11.80
2010,07,25,00,32,11.80
2010,07,25,00,33,11.80
2010,07,25,00,34,11.80
2010,07,25,00,35,11.80
2010,07,25,00,36,11.80
2010,07,25,00,37,11.80
2010,07,25,00,38,11.70
2010,07,25,00,39,11.70
2010,07,25,00,40,11.70
2010,07,25,00,41,11.70
2010,07,25,00,42,11.70
2010,07,25,00,43,11.70
2010,07,25,00,44,11.70
2010,07,25,00,45,11.70
2010,07,25,00,46,11.70
2010,07,25,00,47,11.70
2010,07,25,00,48,11.70
2010,07,25,00,49,11.70
2010,07,25,00,50,11.70
2010,07,25,00,51,11.70
2010,07,25,00,52,11.70
2010,07,25,00,53,11.70
2010,07,25,00,54,11.70
2010,07,25,00,55,11.70
2010,07,25,00,56,11.70
2010,07,25,00,57,11.70
2010,07,25,00,58,11.70
2010,07,25,00,59,11.70
2010,07,25,01,00,11.70
2010,07,25,01,01,11.70
2010,07,25,01,02,11.60
2010,07,25,01,03,11.60
2010,07,25,01,04,11.60
2010,07,25,01,05,11.60
2010,07,25,01,06,11.60
2010,07,25,01,07,11.60
2010,07,25,01,08,11.60
2010,07,25,01,09,11.50
2010,07,25,01,10,11.50
2010,07,25,01,11,11.50
2010,07,25,01,12,11.50
2010,07,25,01,13,11.50
2010,07,25,01,14,11.50
2010,07,25,01,15,11.50
2010,07,25,01,16,11.40
2010,07,25,01,17,11.50
2010,07,25,01,18,11.50
2010,07,25,01,19,11.50
2010,07,25,01,20,11.50
2010,07,25,01,21,11.40
2010,07,25,01,22,11.40
2010,07,25,01,23,11.40
2010,07,25,01,24,11.40
2010,07,25,01,25,11.40
2010,07,25,01,26,11.40
2010,07,25,01,27,11.40
2010,07,25,01,28,11.40
2010,07,25,01,29,11.40
2010,07,25,01,30,11.40
2010,07,25,01,31,11.40
2010,07,25,01,32,11.40
2010,07,25,01,33,11.40
2010,07,25,01,34,11.30
2010,07,25,01,35,11.30
2010,07,25,01,36,11.30
2010,07,25,01,37,11.30
2010,07,25,01,38,11.30
2010,07,25,01,39,11.30
2010,07,25,01,40,11.30
2010,07,25,01,41,11.30
2010,07,25,01,42,11.30
2010,07,25,01,43,11.30
2010,07,25,01,44,11.30
2010,07,25,01,45,11.30
2010,07,25,01,46,11.20
2010,07,25,01,47,11.20
2010,07,25,01,48,11.20
2010,07,25,01,49,11.20
2010,07,25,01,50,11.20
2010,07,25,01,51,11.20
2010,07,25,01,52,11.20
2010,07,25,01,53,11.20
2010,07,25,01,54,11.20
2010,07,25,01,55,11.20
2010,07,25,01,56,11.20
2010,07,25,01,57,11.20
2010,07,25,01,58,11.20
2010,07,25,01,59,11.20
2010,07,25,02,00,11.20
2010,07,25,02,01,11.20
2010,07,25,02,02,11.30
2010,07,25,02,03,11.30
2010,07,25,02,04,11.30
2010,07,25,02,05,11.30
2010,07,25,02,06,11.30
2010,07,25,02,07,11.30
2010,07,25,02,08,11.30
2010,07,25,02,09,11.30
2010,07,25,02,10,11.30
2010,07,25,02,11,11.30
2010,07,25,02,12,11.30
2010,07,25,02,13,11.30
2010,07,25,02,14,11.30
2010,07,25,02,15,11.30
2010,07,25,02,16,11.30
2010,07,25,02,17,11.30
2010,07,25,02,18,11.30
2010,07,25,02,19,11.30
2010,07,25,02,20,11.30
2010,07,25,02,21,11.30
2010,07,25,02,22,11.30
2010,07,25,02,23,11.30
2010,07,25,02,24,11.30
2010,07,25,02,25,11.30
2010,07,25,02,26,11.30
2010,07,25,02,27,11.30
2010,07,25,02,28,11.30
2010,07,25,02,29,11.30
2010,07,25,02,30,11.30
2010,07,25,02,31,11.40
2010,07,25,02,32,11.40
2010,07,25,02,33,11.40
2010,07,25,02,34,11.40
2010,07,25,02,35,11.40
2010,07,25,02,36,11.40
2010,07,25,02,37,11.50
2010,07,25,02,38,11.50
2010,07,25,02,39,11.50
2010,07,25,02,40,11.60
2010,07,25,02,41,11.60
2010,07,25,02,42,11.60
2010,07,25,02,43,11.60
2010,07,25,02,44,11.70
2010,07,25,02,45,11.70
2010,07,25,02,46,11.70
2010,07,25,02,47,11.70
2010,07,25,02,48,11.70
2010,07,25,02,49,11.70
2010,07,25,02,50,11.70
2010,07,25,02,51,11.70
2010,07,25,02,52,11.70
2010,07,25,02,53,11.70
2010,07,25,02,54,11.70
2010,07,25,02,55,11.70
2010,07,25,02,56,11.80
2010,07,25,02,57,11.80
2010,07,25,02,58,11.80
2010,07,25,02,59,11.80
2010,07,25,03,00,11.90
2010,07,25,03,01,11.90
2010,07,25,03,02,11.90
2010,07,25,03,03,11.90
2010,07,25,03,06,11.90
2010,07,25,03,07,12.00
2010,07,25,03,08,12.00
2010,07,25,03,09,12.00
2010,07,25,03,10,12.00
2010,07,25,03,11,12.00
2010,07,25,03,12,12.00
2010,07,25,03,13,12.00
2010,07,25,03,14,12.10
2010,07,25,03,15,12.10
2010,07,25,03,16,12.10
2010,07,25,03,17,12.10
2010,07,25,03,18,12.10
2010,07,25,03,19,12.10
2010,07,25,03,20,12.10
2010,07,25,03,21,12.10
2010,07,25,03,22,12.10
2010,07,25,03,23,12.10
2010,07,25,03,24,12.10
2010,07,25,03,25,12.10
2010,07,25,03,26,12.10
2010,07,25,03,27,12.10
2010,07,25,03,28,12.10
2010,07,25,03,29,12.10
2010,07,25,03,30,12.10
2010,07,25,03,31,12.10
2010,07,25,03,32,12.10
2010,07,25,03,33,12.20
2010,07,25,03,34,12.20
2010,07,25,03,35,12.20
2010,07,25,03,36,12.20
2010,07,25,03,37,12.20
2010,07,25,03,38,12.20
2010,07,25,03,39,12.20
2010,07,25,03,40,12.20
2010,07,25,03,41,12.20
2010,07,25,03,42,12.20
2010,07,25,03,43,12.20
2010,07,25,03,44,12.20
2010,07,25,03,45,12.20
2010,07,25,03,46,12.20
2010,07,25,03,47,12.20
2010,07,25,03,48,12.20
2010,07,25,03,49,12.20
2010,07,25,03,50,12.20
2010,07,25,03,51,12.20
2010,07,25,03,52,12.10
2010,07,25,03,53,12.10
2010,07,25,03,54,12.10
2010,07,25,03,55,12.10
2010,07,25,03,56,12.20
2010,07,25,03,57,12.20
2010,07,25,03,58,12.20
2010,07,25,03,59,12.20
2010,07,25,04,00,12.10
2010,07,25,04,01,12.10
2010,07,25,04,02,12.10
2010,07,25,04,03,12.10
2010,07,25,04,04,12.10
2010,07,25,04,05,12.10
2010,07,25,04,06,12.10
2010,07,25,04,07,12.20
2010,07,25,04,08,12.20
2010,07,25,04,09,12.20
2010,07,25,04,10,12.20
2010,07,25,04,11,12.30
2010,07,25,04,12,12.30
2010,07,25,04,13,12.30
2010,07,25,04,14,12.30
2010,07,25,04,15,12.30
2010,07,25,04,16,12.30
2010,07,25,04,17,12.30
2010,07,25,04,18,12.30
2010,07,25,04,19,12.30
2010,07,25,04,20,12.30
2010,07,25,04,21,12.30
2010,07,25,04,22,12.30
2010,07,25,04,23,12.30
2010,07,25,04,24,12.30
2010,07,25,04,25,12.20
2010,07,25,04,26,12.20
2010,07,25,04,27,12.20
2010,07,25,04,28,12.20
2010,07,25,04,29,12.20
2010,07,25,04,30,12.20
2010,07,25,04,31,12.20
2010,07,25,04,32,12.20
2010,07,25,04,33,12.20
2010,07,25,04,34,12.20
2010,07,25,04,35,12.20
2010,07,25,04,36,12.20
2010,07,25,04,37,12.20
2010,07,25,04,38,12.20
2010,07,25,04,39,12.20
2010,07,25,04,40,12.30
2010,07,25,04,41,12.30
2010,07,25,04,42,12.30
2010,07,25,04,43,12.30
2010,07,25,04,44,12.20
2010,07,25,04,45,12.20
2010,07,25,04,46,12.10
2010,07,25,04,47,12.00
2010,07,25,04,48,12.00
2010,07,25,04,49,11.90
2010,07,25,04,50,11.90
2010,07,25,04,51,11.80
2010,07,25,04,52,11.80
2010,07,25,04,53,11.80
2010,07,25,04,54,11.70
2010,07,25,04,55,11.70
2010,07,25,04,56,11.70
2010,07,25,04,57,11.60
2010,07,25,04,58,11.60
2010,07,25,04,59,11.60
2010,07,25,05,00,11.50
2010,07,25,05,01,11.50
2010,07,25,05,02,11.50
2010,07,25,05,03,11.40
2010,07,25,05,04,11.40
2010,07,25,05,05,11.40
2010,07,25,05,06,11.40
2010,07,25,05,07,11.40
2010,07,25,05,08,11.40
2010,07,25,05,09,11.40
2010,07,25,05,10,11.40
2010,07,25,05,11,11.40
2010,07,25,05,12,11.40
2010,07,25,05,13,11.40
2010,07,25,05,14,11.40
2010,07,25,05,15,11.40
2010,07,25,05,16,11.40
2010,07,25,05,17,11.40
2010,07,25,05,18,11.40
2010,07,25,05,19,11.40
2010,07,25,05,20,11.40
2010,07,25,05,21,11.40
2010,07,25,05,22,11.40
2010,07,25,05,23,11.40
2010,07,25,05,24,11.40
2010,07,25,05,25,11.40
2010,07,25,05,26,11.30
2010,07,25,05,27,11.30
2010,07,25,05,28,11.30
2010,07,25,05,29,11.30
2010,07,25,05,30,11.30
2010,07,25,05,31,11.30
2010,07,25,05,32,11.30
2010,07,25,05,33,11.30
2010,07,25,05,34,11.30
2010,07,25,05,35,11.30
2010,07,25,05,36,11.40
2010,07,25,05,37,11.40
2010,07,25,05,38,11.40
2010,07,25,05,39,11.40
2010,07,25,05,40,11.40
2010,07,25,05,41,11.40
2010,07,25,05,42,11.30
2010,07,25,05,43,11.30
2010,07,25,05,44,11.30
2010,07,25,05,45,11.30
2010,07,25,05,46,11.30
2010,07,25,05,47,11.20
2010,07,25,05,48,11.20
2010,07,25,05,49,11.20
2010,07,25,05,50,11.20
2010,07,25,05,51,11.10
2010,07,25,05,52,11.10
2010,07,25,05,53,11.10
2010,07,25,05,54,11.00
2010,07,25,05,55,11.00
2010,07,25,05,56,11.00
2010,07,25,05,57,11.00
2010,07,25,05,58,11.00
2010,07,25,05,59,11.10
2010,07,25,06,00,11.10
2010,07,25,06,01,11.10
2010,07,25,06,02,11.10
2010,07,25,06,03,11.10
2010,07,25,06,04,11.00
2010,07,25,06,05,11.00
2010,07,25,06,06,11.00
2010,07,25,06,07,11.10
2010,07,25,06,08,11.10
2010,07,25,06,09,11.10
2010,07,25,06,10,11.20
2010,07,25,06,11,11.20
2010,07,25,06,12,11.30
2010,07,25,06,13,11.30
2010,07,25,06,14,11.30
2010,07,25,06,15,11.30
2010,07,25,06,16,11.30
2010,07,25,06,17,11.30
2010,07,25,06,18,11.20
2010,07,25,06,19,11.20
2010,07,25,06,20,11.20
2010,07,25,06,21,11.20
2010,07,25,06,22,11.10
2010,07,25,06,23,11.10
2010,07,25,06,24,11.10
2010,07,25,06,25,11.10
2010,07,25,06,26,11.10
2010,07,25,06,27,11.10
2010,07,25,06,28,11.10
2010,07,25,06,29,11.10
2010,07,25,06,30,11.10
2010,07,25,06,31,11.10
2010,07,25,06,32,11.10
2010,07,25,06,33,11.10
2010,07,25,06,34,11.10
2010,07,25,06,35,11.10
2010,07,25,06,36,11.10
2010,07,25,06,37,11.10
2010,07,25,06,38,11.10
2010,07,25,06,39,11.10
2010,07,25,06,40,11.20
2010,07,25,06,41,11.20
2010,07,25,06,42,11.20
2010,07,25,06,43,11.20
2010,07,25,06,44,11.20
2010,07,25,06,45,11.30
2010,07,25,06,46,11.30
2010,07,25,06,47,11.30
2010,07,25,06,48,11.30
2010,07,25,06,49,11.30
2010,07,25,06,50,11.30
2010,07,25,06,51,11.30
2010,07,25,06,52,11.40
2010,07,25,06,53,11.40
2010,07,25,06,54,11.40
2010,07,25,06,55,11.40
2010,07,25,06,56,11.40
2010,07,25,06,57,11.40
2010,07,25,06,58,11.50
2010,07,25,06,59,11.50
2010,07,25,07,00,11.60
2010,07,25,07,01,11.60
2010,07,25,07,02,11.60
2010,07,25,07,03,11.70
2010,07,25,07,04,11.70
2010,07,25,07,05,11.70
2010,07,25,07,06,11.80
2010,07,25,07,07,11.80
2010,07,25,07,08,11.90
2010,07,25,07,09,11.90
2010,07,25,07,10,11.90
2010,07,25,07,11,12.00
2010,07,25,07,12,12.10
2010,07,25,07,13,12.10
2010,07,25,07,14,12.20
2010,07,25,07,15,12.30
2010,07,25,07,16,12.30
2010,07,25,07,17,12.40
2010,07,25,07,18,12.40
2010,07,25,07,19,12.50
2010,07,25,07,20,12.50
2010,07,25,07,21,12.60
2010,07,25,07,22,12.60
2010,07,25,07,23,12.70
2010,07,25,07,24,12.70
2010,07,25,07,25,12.70
2010,07,25,07,26,12.80
2010,07,25,07,27,12.90
2010,07,25,07,28,12.90
2010,07,25,07,29,12.90
2010,07,25,07,30,13.00
2010,07,25,07,31,13.10
2010,07,25,07,32,13.10
2010,07,25,07,33,13.20
2010,07,25,07,34,13.20
2010,07,25,07,35,13.20
2010,07,25,07,36,13.30
2010,07,25,07,37,13.30
2010,07,25,07,38,13.30
2010,07,25,07,39,13.30
2010,07,25,07,40,13.40
2010,07,25,07,41,13.40
2010,07,25,07,42,13.40
2010,07,25,07,43,13.50
2010,07,25,07,44,13.60
2010,07,25,07,45,13.60
2010,07,25,07,46,13.70
2010,07,25,07,47,13.70
2010,07,25,07,48,13.80
2010,07,25,07,49,13.80
2010,07,25,07,50,13.80
2010,07,25,07,51,13.90
2010,07,25,07,52,13.90
2010,07,25,07,53,14.00
2010,07,25,07,54,14.10
2010,07,25,07,55,14.10
2010,07,25,07,56,14.20
2010,07,25,07,57,14.30
2010,07,25,07,58,14.40
2010,07,25,07,59,14.50
2010,07,25,08,00,14.70
2010,07,25,08,01,14.80
2010,07,25,08,02,14.80
2010,07,25,08,03,14.90
2010,07,25,08,04,15.00
2010,07,25,08,05,15.10
2010,07,25,08,06,15.10
2010,07,25,08,07,15.10
2010,07,25,08,08,15.00
2010,07,25,08,09,14.90
2010,07,25,08,10,14.70
2010,07,25,08,11,14.60
2010,07,25,08,12,14.50
2010,07,25,08,13,14.40
2010,07,25,08,14,14.30
2010,07,25,08,15,14.30
2010,07,25,08,16,14.20
2010,07,25,08,17,14.20
2010,07,25,08,18,14.20
2010,07,25,08,19,14.20
2010,07,25,08,20,14.20
2010,07,25,08,21,14.20
2010,07,25,08,22,14.20
2010,07,25,08,23,14.20
2010,07,25,08,24,14.20
2010,07,25,08,25,14.30
2010,07,25,08,26,14.30
2010,07,25,08,27,14.30
2010,07,25,08,28,14.30
2010,07,25,08,29,14.30
2010,07,25,08,30,14.40
2010,07,25,08,31,14.40
2010,07,25,08,32,14.50
2010,07,25,08,33,14.50
2010,07,25,08,34,14.60
2010,07,25,08,35,14.60
2010,07,25,08,36,14.70
2010,07,25,08,37,14.80
2010,07,25,08,38,14.80
2010,07,25,08,39,14.90
2010,07,25,08,40,15.00
2010,07,25,08,41,15.10
2010,07,25,08,42,15.20
2010,07,25,08,43,15.30
2010,07,25,08,44,15.30
2010,07,25,08,45,15.30
2010,07,25,08,46,15.30
2010,07,25,08,47,15.30
2010,07,25,08,48,15.40
2010,07,25,08,49,15.30
2010,07,25,08,50,15.30
2010,07,25,08,51,15.30
2010,07,25,08,52,15.30
2010,07,25,08,53,15.30
2010,07,25,08,54,15.20
2010,07,25,08,55,15.20
2010,07,25,08,56,15.30
2010,07,25,08,57,15.30
2010,07,25,08,58,15.30
2010,07,25,08,59,15.30
2010,07,25,09,00,15.40
2010,07,25,09,01,15.40
2010,07,25,09,02,15.50
2010,07,25,09,03,15.50
2010,07,25,09,04,15.60
2010,07,25,09,05,15.70
2010,07,25,09,06,15.70
2010,07,25,09,07,15.80
2010,07,25,09,08,15.80
2010,07,25,09,09,15.80
2010,07,25,09,10,15.80
2010,07,25,09,11,15.80
2010,07,25,09,12,15.80
2010,07,25,09,13,15.70
2010,07,25,09,14,15.70
2010,07,25,09,15,15.70
2010,07,25,09,16,15.70
2010,07,25,09,17,15.70
2010,07,25,09,18,15.70
2010,07,25,09,19,15.70
2010,07,25,09,20,15.70
2010,07,25,09,21,15.70
2010,07,25,09,22,15.60
2010,07,25,09,23,15.60
2010,07,25,09,24,15.60
2010,07,25,09,25,15.60
2010,07,25,09,26,15.60
2010,07,25,09,27,15.70
2010,07,25,09,28,15.70
2010,07,25,09,29,15.70
2010,07,25,09,30,15.80
2010,07,25,09,31,15.70
2010,07,25,09,32,15.70
2010,07,25,09,33,15.70
2010,07,25,09,34,15.70
2010,07,25,09,35,15.70
2010,07,25,09,36,15.70
2010,07,25,09,37,15.70
2010,07,25,09,38,15.60
2010,07,25,09,39,15.60
2010,07,25,09,40,15.70
2010,07,25,09,41,15.70
2010,07,25,09,42,15.70
2010,07,25,09,43,15.70
2010,07,25,09,44,15.70
2010,07,25,09,45,15.70
2010,07,25,09,46,15.70
2010,07,25,09,47,15.70
2010,07,25,09,48,15.70
2010,07,25,09,49,15.70
2010,07,25,09,50,15.70
2010,07,25,09,51,15.70
2010,07,25,10,08,16.60
2010,07,25,10,09,16.70
2010,07,25,10,10,16.80
2010,07,25,10,11,16.90
2010,07,25,10,12,17.00
2010,07,25,10,13,17.10
2010,07,25,10,14,17.10
2010,07,25,10,15,17.10
2010,07,25,10,16,17.00
2010,07,25,10,17,17.00
2010,07,25,10,18,17.00
2010,07,25,10,19,17.00
2010,07,25,10,20,17.10
2010,07,25,10,21,17.20
2010,07,25,10,22,17.20
2010,07,25,10,23,17.30
2010,07,25,10,24,17.40
2010,07,25,10,25,17.40
2010,07,25,10,26,17.40
2010,07,25,10,27,17.30
2010,07,25,10,28,17.30
2010,07,25,10,29,17.20
2010,07,25,10,30,17.20
2010,07,25,10,31,17.20
2010,07,25,10,32,17.30
2010,07,25,10,33,17.30
2010,07,25,10,34,17.30
2010,07,25,10,35,17.30
2010,07,25,10,36,17.30
2010,07,25,10,37,17.30
2010,07,25,10,38,17.30
2010,07,25,10,39,17.20
2010,07,25,10,40,17.20
2010,07,25,10,41,17.20
2010,07,25,10,42,17.20
2010,07,25,10,43,17.20
2010,07,25,10,44,17.40
2010,07,25,10,45,17.50
2010,07,25,10,46,17.60
2010,07,25,10,47,17.70
2010,07,25,10,48,17.80
2010,07,25,10,49,17.90
2010,07,25,10,50,18.00
2010,07,25,10,51,18.20
2010,07,25,10,52,18.30
2010,07,25,10,53,18.40
2010,07,25,10,54,18.50
2010,07,25,10,55,18.60
2010,07,25,10,56,18.70
2010,07,25,10,57,18.70
2010,07,25,10,58,18.80
2010,07,25,10,59,18.80
2010,07,25,11,00,18.80
2010,07,25,11,01,18.90
2010,07,25,11,02,18.90
2010,07,25,11,03,18.90
2010,07,25,11,04,18.80
2010,07,25,11,05,18.80
2010,07,25,11,06,18.80
2010,07,25,11,07,18.90
2010,07,25,11,08,18.90
2010,07,25,11,09,19.00
2010,07,25,11,10,19.10
2010,07,25,11,11,19.30
2010,07,25,11,12,19.30
2010,07,25,11,13,19.30
2010,07,25,11,14,19.20
2010,07,25,11,15,19.20
2010,07,25,11,16,19.20
2010,07,25,11,17,19.20
2010,07,25,11,18,19.10
2010,07,25,11,19,19.10
2010,07,25,11,20,19.10
2010,07,25,11,21,19.10
2010,07,25,11,22,19.10
2010,07,25,11,23,19.00
2010,07,25,11,24,18.80
2010,07,25,11,25,18.80
2010,07,25,11,26,18.70
2010,07,25,11,27,18.70
2010,07,25,11,28,18.80
2010,07,25,11,29,18.80
2010,07,25,11,30,18.80
2010,07,25,11,31,18.80
2010,07,25,11,32,18.70
2010,07,25,11,33,18.70
2010,07,25,11,34,18.70
2010,07,25,11,35,18.60
2010,07,25,11,36,18.50
2010,07,25,11,37,18.40
2010,07,25,11,38,18.30
2010,07,25,11,39,18.20
2010,07,25,11,40,18.20
2010,07,25,11,41,18.20
2010,07,25,11,42,18.20
2010,07,25,11,43,18.20
2010,07,25,11,44,18.20
2010,07,25,11,45,18.30
2010,07,25,11,46,18.50
2010,07,25,11,47,18.60
2010,07,25,11,48,18.60
2010,07,25,11,49,18.60
2010,07,25,11,50,18.60
2010,07,25,11,51,18.70
2010,07,25,11,52,18.80
2010,07,25,11,53,18.80
2010,07,25,11,54,18.90
2010,07,25,11,55,18.90
2010,07,25,11,56,18.90
2010,07,25,11,57,18.80
2010,07,25,11,58,18.80
2010,07,25,11,59,18.80
2010,07,25,12,00,18.80
2010,07,25,12,01,18.90
2010,07,25,12,02,19.10
2010,07,25,12,03,19.20
2010,07,25,12,04,19.20
2010,07,25,12,05,19.30
2010,07,25,12,06,19.30
2010,07,25,12,07,19.30
2010,07,25,12,08,19.30
2010,07,25,12,09,19.20
2010,07,25,12,10,19.10
2010,07,25,12,11,18.90
2010,07,25,12,12,18.80
2010,07,25,12,13,18.80
2010,07,25,12,14,18.80
2010,07,25,12,15,18.80
2010,07,25,12,16,18.80
2010,07,25,12,17,18.90
2010,07,25,12,18,18.90
2010,07,25,12,19,18.80
2010,07,25,12,20,18.80
2010,07,25,12,21,18.80
2010,07,25,12,22,18.80
2010,07,25,12,23,18.90
2010,07,25,12,24,18.90
2010,07,25,12,25,19.00
2010,07,25,12,26,19.00
2010,07,25,12,27,19.00
2010,07,25,12,28,19.10
2010,07,25,12,29,19.20
2010,07,25,12,30,19.20
2010,07,25,12,31,19.20
2010,07,25,12,32,19.20
2010,07,25,12,33,19.30
2010,07,25,12,34,19.40
2010,07,25,12,35,19.50
2010,07,25,12,36,19.50
2010,07,25,12,37,19.60
2010,07,25,12,38,19.50
2010,07,25,12,39,19.40
2010,07,25,12,40,19.40
2010,07,25,12,41,19.30
2010,07,25,12,42,19.40
2010,07,25,12,43,19.60
2010,07,25,12,44,19.70
2010,07,25,12,45,19.80
2010,07,25,12,46,19.80
2010,07,25,12,47,19.50
2010,07,25,12,48,19.30
2010,07,25,12,49,19.20
2010,07,25,12,50,19.20
2010,07,25,12,51,19.20
2010,07,25,12,52,19.10
2010,07,25,12,53,19.00
2010,07,25,12,54,18.80
2010,07,25,12,55,18.70
2010,07,25,12,56,18.60
2010,07,25,12,57,18.50
2010,07,25,12,58,18.50
2010,07,25,12,59,18.40
2010,07,25,13,00,18.50
2010,07,25,13,01,18.50
2010,07,25,13,02,18.60
2010,07,25,13,03,18.70
2010,07,25,13,04,18.70
2010,07,25,13,05,18.70
2010,07,25,13,06,18.80
2010,07,25,13,07,18.90
2010,07,25,13,08,19.00
2010,07,25,13,09,19.00
2010,07,25,13,10,19.20
2010,07,25,13,11,19.20
2010,07,25,13,12,19.30
2010,07,25,13,13,19.40
2010,07,25,13,14,19.50
2010,07,25,13,15,19.60
2010,07,25,13,16,19.70
2010,07,25,13,17,19.80
2010,07,25,13,18,19.80
2010,07,25,13,19,19.70
2010,07,25,13,20,19.70
2010,07,25,13,21,19.60
2010,07,25,13,22,19.40
2010,07,25,13,23,19.10
2010,07,25,13,24,18.90
2010,07,25,13,25,18.80
2010,07,25,13,26,18.60
2010,07,25,13,27,18.50
2010,07,25,13,28,18.30
2010,07,25,13,29,18.30
2010,07,25,13,30,18.20
2010,07,25,13,31,18.20
2010,07,25,13,32,18.20
2010,07,25,13,33,18.20
2010,07,25,13,34,18.20
2010,07,25,13,35,18.20
2010,07,25,13,36,18.10
2010,07,25,13,37,18.00
2010,07,25,13,38,18.00
2010,07,25,13,39,17.90
2010,07,25,13,40,17.80
2010,07,25,13,41,17.80
2010,07,25,13,42,17.80
2010,07,25,13,43,17.90
2010,07,25,13,44,18.00
2010,07,25,13,45,18.10
2010,07,25,13,46,18.20
2010,07,25,13,47,18.20
2010,07,25,13,48,18.30
2010,07,25,13,49,18.50
2010,07,25,13,50,18.60
2010,07,25,13,51,18.60
2010,07,25,13,52,18.70
2010,07,25,13,53,18.80
2010,07,25,13,54,18.90
2010,07,25,13,55,19.00
2010,07,25,13,56,19.10
2010,07,25,13,57,19.30
2010,07,25,13,58,19.40
2010,07,25,13,59,19.40
2010,07,25,14,00,19.40
2010,07,25,14,01,19.30
2010,07,25,14,02,19.30
2010,07,25,14,03,19.30
2010,07,25,14,04,19.20
2010,07,25,14,05,19.10
2010,07,25,14,06,19.00
2010,07,25,14,07,19.00
2010,07,25,14,08,18.90
2010,07,25,14,09,18.80
2010,07,25,14,10,18.90
2010,07,25,14,11,18.90
2010,07,25,14,12,18.90
2010,07,25,14,13,18.90
2010,07,25,14,14,19.00
2010,07,25,14,15,19.10
2010,07,25,14,16,19.20
2010,07,25,14,17,19.30
2010,07,25,14,18,19.30
2010,07,25,14,19,19.40
2010,07,25,14,20,19.50
2010,07,25,14,21,19.60
2010,07,25,14,22,19.60
2010,07,25,14,23,19.70
2010,07,25,14,24,19.80
2010,07,25,14,25,19.80
2010,07,25,14,26,19.80
2010,07,25,14,27,19.80
2010,07,25,14,28,19.80
2010,07,25,14,29,19.80
2010,07,25,14,30,19.90
2010,07,25,14,31,20.00
2010,07,25,14,32,20.10
2010,07,25,14,33,20.10
2010,07,25,14,34,20.00
2010,07,25,14,35,20.00
2010,07,25,14,36,19.90
2010,07,25,14,37,20.00
2010,07,25,14,38,20.10
2010,07,25,14,39,20.20
2010,07,25,14,40,20.30
2010,07,25,14,41,20.30
2010,07,25,14,42,20.40
2010,07,25,14,43,20.40
2010,07,25,14,44,20.40
2010,07,25,14,45,20.30
2010,07,25,14,46,20.30
2010,07,25,14,47,20.30
2010,07,25,14,48,20.30
2010,07,25,14,49,20.30
2010,07,25,14,50,20.40
2010,07,25,14,51,20.50
2010,07,25,14,52,20.60
2010,07,25,14,53,20.80
2010,07,25,14,54,20.90
2010,07,25,14,55,21.00
2010,07,25,14,56,21.00
2010,07,25,14,57,21.10
2010,07,25,14,58,21.10
2010,07,25,14,59,21.10
2010,07,25,15,00,21.10
2010,07,25,15,01,21.10
2010,07,25,15,02,21.10
2010,07,25,15,03,21.10
2010,07,25,15,04,21.00
2010,07,25,15,05,20.90
2010,07,25,15,06,20.80
2010,07,25,15,07,20.70
2010,07,25,15,08,20.50
2010,07,25,15,09,20.50
2010,07,25,15,10,20.50
2010,07,25,15,11,20.50
2010,07,25,15,12,20.60
2010,07,25,15,13,20.60
2010,07,25,15,14,20.70
2010,07,25,15,15,20.80
2010,07,25,15,16,20.90
2010,07,25,15,17,20.80
2010,07,25,15,18,20.80
2010,07,25,15,19,20.70
2010,07,25,15,20,20.70
2010,07,25,15,21,20.60
2010,07,25,15,22,20.60
2010,07,25,15,23,20.60
2010,07,25,15,24,20.60
2010,07,25,15,25,20.60
2010,07,25,15,26,20.60
2010,07,25,15,27,20.70
2010,07,25,15,28,20.80
2010,07,25,15,29,20.80
2010,07,25,15,30,20.90
2010,07,25,15,31,21.00
2010,07,25,15,32,21.10
2010,07,25,15,33,21.30
2010,07,25,15,34,21.30
2010,07,25,15,35,21.40
2010,07,25,15,36,21.40
2010,07,25,15,37,21.50
2010,07,25,15,38,21.40
2010,07,25,15,39,21.30
2010,07,25,15,40,21.10
2010,07,25,15,41,20.80
2010,07,25,15,42,20.50
2010,07,25,15,43,20.20
2010,07,25,15,44,20.00
2010,07,25,15,45,19.80
2010,07,25,15,46,19.60
2010,07,25,15,47,19.40
2010,07,25,15,48,19.30
2010,07,25,15,49,19.10
2010,07,25,15,50,18.90
2010,07,25,15,51,18.80
2010,07,25,15,52,18.80
2010,07,25,15,53,18.70
2010,07,25,15,54,18.70
2010,07,25,15,55,18.60
2010,07,25,15,56,18.50
2010,07,25,15,57,18.40
2010,07,25,15,58,18.40
2010,07,25,15,59,18.30
2010,07,25,16,00,18.20
2010,07,25,16,01,18.20
2010,07,25,16,02,18.30
2010,07,25,16,03,18.30
2010,07,25,16,04,18.30
2010,07,25,16,05,18.30
2010,07,25,16,06,18.30
2010,07,25,16,07,18.50
2010,07,25,16,08,18.50
2010,07,25,16,09,18.50
2010,07,25,16,10,18.50
2010,07,25,16,11,18.40
2010,07,25,16,12,18.30
2010,07,25,16,13,18.20
2010,07,25,16,14,18.20
2010,07,25,16,15,18.10
2010,07,25,16,16,18.00
2010,07,25,16,17,18.00
2010,07,25,16,18,18.00
2010,07,25,16,19,18.10
2010,07,25,16,20,18.10
2010,07,25,16,21,18.10
2010,07,25,16,22,18.10
2010,07,25,16,23,18.10
2010,07,25,16,24,18.10
2010,07,25,16,25,18.20
2010,07,25,16,26,18.20
2010,07,25,16,27,18.40
2010,07,25,16,28,18.40
2010,07,25,16,29,18.40
2010,07,25,16,30,18.40
2010,07,25,16,31,18.50
2010,07,25,16,32,18.60
2010,07,25,16,33,18.80
2010,07,25,16,34,18.90
2010,07,25,16,35,18.90
2010,07,25,16,36,19.00
2010,07,25,16,37,19.00
2010,07,25,16,38,19.00
2010,07,25,16,39,19.10
2010,07,25,16,40,19.00
2010,07,25,16,41,18.90
2010,07,25,16,42,18.90
2010,07,25,16,43,18.90
2010,07,25,16,44,18.90
2010,07,25,16,45,18.90
2010,07,25,16,46,18.90
2010,07,25,16,47,18.90
2010,07,25,16,48,19.00
2010,07,25,16,49,18.90
2010,07,25,16,50,19.00
2010,07,25,16,51,19.00
2010,07,25,16,52,19.00
2010,07,25,16,53,19.00
2010,07,25,16,54,19.00
2010,07,25,16,55,19.10
2010,07,25,16,56,19.10
2010,07,25,16,57,19.20
2010,07,25,16,58,19.20
2010,07,25,16,59,19.30
2010,07,25,17,00,19.30
2010,07,25,17,01,19.40
2010,07,25,17,02,19.50
2010,07,25,17,03,19.60
2010,07,25,17,04,19.60
2010,07,25,17,05,19.60
2010,07,25,17,06,19.50
2010,07,25,17,07,19.40
2010,07,25,17,08,19.40
2010,07,25,17,09,19.40
2010,07,25,17,10,19.40
2010,07,25,17,11,19.40
2010,07,25,17,12,19.40
2010,07,25,17,13,19.30
2010,07,25,17,14,19.30
2010,07,25,17,15,19.30
2010,07,25,17,16,19.20
2010,07,25,17,17,19.20
2010,07,25,17,18,19.20
2010,07,25,17,19,19.20
2010,07,25,17,20,19.20
2010,07,25,17,21,19.10
2010,07,25,17,22,19.20
2010,07,25,17,23,19.20
2010,07,25,17,24,19.10
2010,07,25,17,25,19.10
2010,07,25,17,26,19.10
2010,07,25,17,27,19.10
2010,07,25,17,28,19.20
2010,07,25,17,29,19.20
2010,07,25,17,30,19.20
2010,07,25,17,31,19.10
2010,07,25,17,32,19.10
2010,07,25,17,33,19.00
2010,07,25,17,34,19.00
2010,07,25,17,35,19.00
2010,07,25,17,36,19.00
2010,07,25,17,37,19.10